• In Portugal
  • List of Countries
  • For 7 days
  • Water Temperature
  • Satellite Maps
  • Weather Map
  • Weather Widgets
  • user-avatar
    Login

    Hourly Weather Gobabis

    Today, 23 October, Monday

    Time Temperature Precipitation Wind Pressure Humidity
    00:00 +23°C° 0.5 mm 4 mps 643 mmHg 50%
    01:00 +25°C° 0.5 mm 2 mps 643 mmHg 47%
    02:00 +24°C° 0.1 mm 3 mps 642 mmHg 48%
    03:00 +23°C° 0.1 mm 4 mps 642 mmHg 49%
    04:00 +22°C° 0.1 mm 6 mps 642 mmHg 50%
    05:00 +23°C° 0 mm 6 mps 642 mmHg 48%
    06:00 +23°C° 0 mm 6 mps 643 mmHg 46%
    07:00 +24°C° 0 mm 7 mps 643 mmHg 45%
    08:00 +27°C° 0 mm 7 mps 643 mmHg 39%
    09:00 +29°C° 0 mm 7 mps 644 mmHg 34%
    10:00 +32°C° 0 mm 7 mps 644 mmHg 28%
    11:00 +32°C° 0 mm 6 mps 644 mmHg 27%
    12:00 +33°C° 0 mm 6 mps 643 mmHg 25%
    13:00 +34°C° 0 mm 5 mps 643 mmHg 24%
    14:00 +33°C° 0 mm 5 mps 642 mmHg 26%
    15:00 +32°C° 0 mm 5 mps 642 mmHg 28%
    16:00 +32°C° 0 mm 5 mps 641 mmHg 30%
    17:00 +30°C° 0 mm 5 mps 641 mmHg 33%
    18:00 +29°C° 0 mm 6 mps 641 mmHg 36%
    19:00 +28°C° 0 mm 6 mps 641 mmHg 39%
    20:00 +27°C° 0.6 mm 6 mps 641 mmHg 42%
    21:00 +26°C° 0.6 mm 6 mps 642 mmHg 45%
    22:00 +24°C° 0.6 mm 6 mps 642 mmHg 48%
    23:00 +25°C° 0.6 mm 5 mps 641 mmHg 49%

    Tomorrow, 24 October, Tuesday

    Time Temperature Precipitation Wind Pressure Humidity
    00:00 +25°C° 0.6 mm 5 mps 641 mmHg 50%
    01:00 +23°C° 0.6 mm 5 mps 641 mmHg 50%
    02:00 +23°C° 0.1 mm 4 mps 641 mmHg 50%
    03:00 +23°C° 0.1 mm 4 mps 640 mmHg 50%
    04:00 +24°C° 0.1 mm 3 mps 640 mmHg 49%
    05:00 +25°C° 0 mm 4 mps 641 mmHg 45%
    06:00 +26°C° 0 mm 4 mps 642 mmHg 41%
    07:00 +28°C° 0 mm 5 mps 642 mmHg 36%
    08:00 +29°C° 0 mm 5 mps 643 mmHg 33%
    09:00 +32°C° 0 mm 6 mps 643 mmHg 29%
    10:00 +34°C° 0 mm 6 mps 643 mmHg 25%
    11:00 +34°C° 0 mm 5 mps 643 mmHg 24%
    12:00 +34°C° 0 mm 5 mps 642 mmHg 24%
    13:00 +34°C° 0 mm 5 mps 642 mmHg 24%
    14:00 +34°C° 0 mm 4 mps 641 mmHg 24%
    15:00 +34°C° 0 mm 4 mps 641 mmHg 24%
    16:00 +34°C° 0 mm 4 mps 641 mmHg 24%
    17:00 +33°C° 0.1 mm 3 mps 641 mmHg 26%
    18:00 +31°C° 0.1 mm 2 mps 641 mmHg 29%
    19:00 +30°C° 0.1 mm 2 mps 641 mmHg 31%
    20:00 +30°C° 0.2 mm 2 mps 641 mmHg 33%
    21:00 +29°C° 0.2 mm 2 mps 642 mmHg 34%
    22:00 +28°C° 0.2 mm 2 mps 642 mmHg 36%
    23:00 +27°C° 0.7 mm 3 mps 641 mmHg 39%

    Day after tomorrow, 25 October, Wednesday

    Time Temperature Precipitation Wind Pressure Humidity
    00:00 +26°C° 0.7 mm 4 mps 641 mmHg 43%
    01:00 +25°C° 0.7 mm 5 mps 641 mmHg 47%
    02:00 +25°C° 0.7 mm 4 mps 641 mmHg 47%
    03:00 +24°C° 0.7 mm 3 mps 641 mmHg 48%
    04:00 +24°C° 0.7 mm 2 mps 640 mmHg 49%
    05:00 +24°C° 0.2 mm 3 mps 641 mmHg 46%
    06:00 +24°C° 0.2 mm 3 mps 641 mmHg 44%
    07:00 +23°C° 0.2 mm 4 mps 642 mmHg 42%
    08:00 +25°C° 0 mm 4 mps 642 mmHg 39%
    09:00 +27°C° 0 mm 4 mps 642 mmHg 36%
    10:00 +28°C° 0 mm 4 mps 642 mmHg 34%
    11:00 +29°C° 0 mm 4 mps 642 mmHg 31%
    12:00 +32°C° 0 mm 4 mps 641 mmHg 28%
    13:00 +33°C° 0 mm 4 mps 641 mmHg 26%
    14:00 +33°C° 0 mm 4 mps 641 mmHg 25%
    15:00 +33°C° 0 mm 4 mps 640 mmHg 24%
    16:00 +34°C° 0 mm 4 mps 640 mmHg 23%
    17:00 +33°C° 0.1 mm 3 mps 640 mmHg 26%
    18:00 +31°C° 0.1 mm 3 mps 641 mmHg 29%
    19:00 +30°C° 0.1 mm 3 mps 641 mmHg 31%
    20:00 +29°C° 0.3 mm 3 mps 641 mmHg 35%
    21:00 +28°C° 0.3 mm 3 mps 641 mmHg 38%
    22:00 +28°C° 0.3 mm 4 mps 641 mmHg 41%
    23:00 +27°C° 0.8 mm 4 mps 641 mmHg 42%

    26 October, Thursday

    Time Temperature Precipitation Wind Pressure Humidity
    00:00 +26°C° 0.8 mm 4 mps 640 mmHg 42%
    01:00 +25°C° 0.8 mm 4 mps 640 mmHg 42%
    02:00 +25°C° 0.1 mm 4 mps 640 mmHg 36%
    03:00 +23°C° 0.1 mm 4 mps 639 mmHg 29%
    04:00 +23°C° 0.1 mm 5 mps 639 mmHg 23%
    05:00 +23°C° 0 mm 4 mps 640 mmHg 21%
    06:00 +23°C° 0 mm 4 mps 640 mmHg 19%
    07:00 +25°C° 0 mm 4 mps 641 mmHg 17%
    08:00 +26°C° 0 mm 4 mps 641 mmHg 15%
    09:00 +28°C° 0 mm 3 mps 641 mmHg 13%
    10:00 +30°C° 0 mm 2 mps 641 mmHg 11%
    11:00 +31°C° 0 mm 2 mps 641 mmHg 11%
    12:00 +32°C° 0 mm 2 mps 640 mmHg 11%
    13:00 +34°C° 0 mm 2 mps 640 mmHg 11%
    14:00 +34°C° 0 mm 2 mps 640 mmHg 11%
    15:00 +35°C° 0 mm 3 mps 639 mmHg 11%
    16:00 +36°C° 0 mm 3 mps 639 mmHg 10%
    17:00 +35°C° 0 mm 4 mps 639 mmHg 11%
    18:00 +34°C° 0 mm 4 mps 639 mmHg 12%
    19:00 +33°C° 0 mm 5 mps 640 mmHg 12%
    20:00 +32°C° 0 mm 5 mps 640 mmHg 11%
    21:00 +29°C° 0 mm 6 mps 639 mmHg 11%
    22:00 +28°C° 0 mm 6 mps 639 mmHg 10%
    23:00 +26°C° 0 mm 7 mps 639 mmHg 11%

    27 October, Friday

    Time Temperature Precipitation Wind Pressure Humidity
    00:00 +24°C° 0 mm 7 mps 639 mmHg 13%
    01:00 +23°C° 0 mm 7 mps 638 mmHg 15%
    02:00 +22°C° 0 mm 7 mps 638 mmHg 20%
    03:00 +21°C° 0 mm 7 mps 638 mmHg 26%
    04:00 +18°C° 0 mm 7 mps 638 mmHg 32%
    05:00 +18°C° 0 mm 7 mps 638 mmHg 35%
    06:00 +19°C° 0 mm 6 mps 639 mmHg 37%
    07:00 +19°C° 0 mm 6 mps 639 mmHg 40%
    08:00 +21°C° 0 mm 6 mps 640 mmHg 35%
    09:00 +23°C° 0 mm 6 mps 640 mmHg 29%
    10:00 +25°C° 0 mm 5 mps 640 mmHg 23%
    11:00 +27°C° 0 mm 5 mps 640 mmHg 21%
    12:00 +28°C° 0 mm 4 mps 639 mmHg 18%
    13:00 +29°C° 0 mm 4 mps 639 mmHg 15%
    14:00 +29°C° 0 mm 4 mps 639 mmHg 14%
    15:00 +30°C° 0 mm 4 mps 639 mmHg 13%
    16:00 +30°C° 0 mm 4 mps 639 mmHg 12%
    17:00 +29°C° 0 mm 5 mps 639 mmHg 14%
    18:00 +28°C° 0 mm 6 mps 639 mmHg 15%
    19:00 +27°C° 0 mm 7 mps 639 mmHg 16%
    20:00 +24°C° 0 mm 8 mps 639 mmHg 17%
    21:00 +22°C° 0 mm 8 mps 639 mmHg 18%
    22:00 +21°C° 0 mm 9 mps 639 mmHg 18%
    23:00 +20°C° 0 mm 8 mps 639 mmHg 18%

    28 October, Saturday

    Time Temperature Precipitation Wind Pressure Humidity
    00:00 +18°C° 0 mm 8 mps 639 mmHg 17%
    01:00 +16°C° 0 mm 7 mps 639 mmHg 16%
    02:00 +16°C° 0 mm 7 mps 639 mmHg 18%
    03:00 +15°C° 0 mm 7 mps 639 mmHg 20%
    04:00 +14°C° 0 mm 7 mps 639 mmHg 22%
    05:00 +14°C° 0 mm 7 mps 639 mmHg 21%
    06:00 +15°C° 0 mm 7 mps 640 mmHg 20%
    07:00 +15°C° 0 mm 7 mps 641 mmHg 19%
    08:00 +17°C° 0 mm 7 mps 641 mmHg 17%
    09:00 +20°C° 0 mm 7 mps 641 mmHg 16%
    10:00 +22°C° 0 mm 7 mps 642 mmHg 14%
    11:00 +24°C° 0 mm 6 mps 641 mmHg 13%
    12:00 +26°C° 0 mm 6 mps 641 mmHg 12%
    13:00 +28°C° 0 mm 6 mps 640 mmHg 12%
    14:00 +28°C° 0 mm 5 mps 640 mmHg 11%
    15:00 +28°C° 0 mm 4 mps 640 mmHg 11%
    16:00 +28°C° 0 mm 4 mps 640 mmHg 11%
    17:00 +27°C° 0 mm 4 mps 640 mmHg 12%
    18:00 +26°C° 0 mm 4 mps 640 mmHg 13%
    19:00 +25°C° 0 mm 5 mps 640 mmHg 13%
    20:00 +23°C° 0 mm 6 mps 640 mmHg 13%
    21:00 +22°C° 0 mm 6 mps 640 mmHg 13%
    22:00 +21°C° 0 mm 7 mps 640 mmHg 13%
    23:00 +20°C° 0 mm 7 mps 639 mmHg 13%
    Show more